Probability
97 97 94 97 94 90 94 97 94 90 90 90 77 68 68 65 52 61 71 90 94 97 97 100 100 100 100 100 100 100 100 100 100 97 97 94 100 100 100 97 100 100 97
94 90 90 90 87 87 84 81 84 81 81 87 77 71 71 68 55 58 61 87 100 100 97 97 100 100 100 100 100 100 100 100 94 94 94 90 97 100 100 100 100 100 100
90 100 87 90 84 81 81 81 81 81 71 71 74 65 58 58 55 65 68 74 87 100 97 100 100 100 100 100 100 100 100 100 94 90 94 90 90 94 97 100 100 100 90
77 90 77 58 61 71 74 77 71 68 61 58 52 55 55 58 61 68 74 74 74 71 94 100 100 100 100 100 100 100 100 97 97 90 81 84 87 87 84 90 100 94 84
74 65 58 45 52 55 55 45 45 42 39 52 35 52 52 52 52 52 65 71 77 84 84 97 100 100 100 97 100 100 100 97 97 90 77 77 84 81 71 81 77 74 61
61 58 55 45 42 45 39 39 39 42 45 45 6 10 35 42 65 61 55 48 58 65 68 77 87 90 97 100 100 100 97 97 97 90 84 81 87 71 58 52 48 55 39
45 52 45 52 39 35 32 29 23 26 32 35 26 16 16 19 16 32 35 23 26 29 39 65 68 71 68 94 97 100 97 94 87 84 87 87 94 74 68 52 29 26 26
32 16 42 35 26 29 26 19 23 19 19 29 10 13 6 13 23 6 16 13 16 23 26 29 45 58 55 58 35 84 94 94 87 87 87 87 84 68 58 52 32 23 13
29 32 26 19 29 19 10 19 23 26 19 26 16 10 3 0 3 16 13 10 23 23 23 26 48 58 52 55 55 26 81 81 94 90 90 87 71 52 48 55 42 23 16
19 19 19 26 19 19 16 16 13 23 23 19 26 29 26 32 6 6 19 29 26 26 13 10 19 55 48 48 52 52 55 58 77 84 87 90 77 58 45 48 45 32 26
16 10 13 10 16 16 13 13 16 23 19 23 19 29 26 32 13 10 3 13 23 23 32 26 29 23 42 39 55 55 48 35 39 65 84 77 77 68 61 52 48 52 42
10 6 6 10 6 10 13 13 13 16 23 19 32 26 19 16 13 13 6 6 10 23 23 23 19 26 35 39 29 35 32 10 13 19 35 58 61 65 65 55 55 55 58
6 3 0 3 3 3 3 6 10 6 10 10 23 29 19 23 23 16 10 6 6 19 23 29 23 45 23 26 10 6 10 0 0 0 3 10 23 35 48 55 55 61 61
0 0 0 0 0 0 0 3 6 6 10 6 6 13 16 19 23 16 10 16 3 3 10 16 35 26 19 23 3 3 10 0 0 0 0 0 3 3 10 26 26 32 29
0 0 0 0 0 0 0 0 0 0 3 6 6 3 6 13 16 13 13 6 3 0 0 23 35 48 35 19 0 3 10 0 0 0 0 0 0 0 0 3 3 6 3
3 0 0 0 0 0 0 0 0 0 0 0 6 3 3 3 6 6 10 10 13 3 6 16 35 32 19 3 0 10 3 0 0 0 0 0 0 0 0 0 0 0 0
3 3 3 3 0 0 0 0 0 0 0 0 0 0 3 3 0 0 6 6 10 10 6 10 13 23 23 6 3 3 0 0 0 0 0 0 0 0 0 0 0 0 0
3 3 3 3 0 0 0 0 0 0 0 0 0 0 0 0 0 0 0 0 0 3 3 0 3 6 13 10 13 0 0 0 0 0 0 0 0 0 0 0 0 0 0
0 0 3 0 0 0 0 0 0 0 0 0 0 0 0 0 0 0 0 0 0 0 0 0 3 0 0 3 3 0 0 0 0 0 0 0 0 0 0 0 0 0 0
0 0 0 0 0 0 0 0 0 0 0 0 0 0 0 0 0 0 0 0 0 0 0 0 6 0 0 0 0 0 0 0 0 0 0 0 0 0 0 0 0 0 0
0 0 0 0 0 0 0 0 0 0 0 0 0 0 0 0 0 0 0 0 0 0 0 0 0 0 0 0 0 0 0 0 0 0 0 0 0 0 0 0 0 0 0
0 0 0 0 0 0 0 0 0 0 0 0 0 0 0 0 0 0 0 0 0 0 0 0 0 3 0 0 0 0 0 0 0 0 0 0 0 0 0 0 0 0 0
0 0 0 0 0 0 0 0 0 0 0 0 0 0 0 0 0 0 0 0 0 0 0 0 3 3 0 0 0 0 0 0 0 0 0 0 0 0 0 0 0 0 0
0 0 0 0 0 0 0 0 0 0 0 0 0 0 0 0 0 0 0 0 0 0 0 0 0 0 0 0 0 0 0 0 0 0 0 0 0 0 0 0 0 0 0
0 0 0 0 0 0 0 0 0 0 0 0 0 0 0 0 0 0 0 0 0 0 0 0 0 0 0 0 0 0 0 0 0 0 0 0 0 0 0 0 0 0 0
0 0 0 0 0 0 0 0 0 0 0 0 0 0 0 0 0 0 0 0 0 0 0 0 0 0 0 0 0 0 0 0 0 0 0 0 0 0 0 0 0 0 0
Height
5860 5858 5857 5855 5855 5854 5855 5855 5856 5857 5857 5858 5859 5860 5861 5862 5865 5866 5868 5869 5871 5874 5876 5877 5879 5881 5882 5884 5885 5887 5888 5890 5892 5893 5895 5897 5900 5902 5903 5905 5907 5909 5911
5853 5851 5849 5848 5847 5846 5846 5847 5847 5849 5850 5851 5853 5854 5856 5856 5858 5860 5861 5864 5866 5869 5871 5873 5875 5877 5878 5880 5881 5883 5884 5886 5888 5890 5892 5894 5896 5898 5900 5902 5904 5906 5908
5845 5843 5841 5839 5838 5838 5838 5838 5839 5840 5842 5844 5846 5848 5849 5851 5852 5854 5856 5859 5862 5864 5866 5869 5871 5873 5874 5876 5877 5879 5881 5882 5884 5886 5887 5889 5891 5894 5896 5899 5901 5903 5905
5838 5836 5833 5831 5830 5829 5830 5831 5832 5833 5835 5836 5839 5841 5843 5845 5847 5850 5852 5854 5857 5860 5862 5864 5866 5868 5870 5871 5873 5875 5876 5878 5880 5881 5883 5885 5887 5889 5891 5894 5897 5899 5902
5830 5828 5826 5823 5822 5822 5822 5822 5824 5825 5827 5829 5832 5834 5837 5839 5841 5844 5846 5849 5852 5855 5857 5859 5861 5864 5866 5867 5869 5871 5872 5874 5875 5877 5878 5880 5882 5884 5886 5889 5892 5895 5898
5823 5820 5818 5816 5814 5814 5814 5814 5816 5817 5819 5822 5824 5827 5830 5832 5835 5838 5841 5844 5847 5849 5852 5854 5857 5859 5861 5863 5865 5867 5868 5870 5871 5872 5874 5875 5877 5879 5881 5884 5887 5890 5893
5815 5813 5811 5809 5808 5807 5806 5807 5808 5809 5811 5814 5817 5820 5823 5825 5828 5831 5834 5838 5841 5844 5846 5850 5852 5854 5857 5859 5861 5862 5864 5865 5867 5868 5870 5871 5873 5875 5877 5879 5882 5885 5888
5807 5805 5804 5803 5801 5800 5799 5799 5800 5801 5804 5806 5809 5812 5815 5819 5821 5824 5828 5831 5835 5838 5841 5844 5847 5850 5852 5855 5857 5858 5860 5861 5862 5864 5865 5867 5869 5870 5872 5875 5877 5880 5883
5799 5797 5796 5795 5794 5793 5793 5792 5792 5794 5795 5798 5801 5804 5807 5811 5814 5818 5821 5824 5828 5831 5835 5838 5841 5844 5847 5850 5852 5854 5856 5857 5859 5860 5861 5863 5864 5866 5868 5870 5872 5874 5877
5790 5789 5787 5787 5786 5786 5786 5785 5785 5786 5788 5790 5793 5796 5799 5803 5807 5811 5814 5817 5821 5824 5828 5832 5835 5838 5841 5844 5847 5849 5851 5853 5855 5856 5857 5859 5860 5862 5863 5865 5867 5869 5871
5780 5779 5778 5777 5777 5777 5777 5777 5778 5779 5780 5782 5785 5788 5791 5794 5798 5802 5806 5810 5814 5817 5821 5825 5829 5832 5835 5839 5842 5844 5846 5848 5850 5852 5853 5855 5856 5858 5859 5861 5862 5864 5866
5768 5767 5767 5766 5766 5766 5767 5768 5769 5770 5772 5774 5776 5779 5783 5786 5790 5794 5797 5801 5805 5810 5813 5817 5821 5825 5829 5833 5836 5839 5841 5844 5846 5848 5849 5851 5852 5854 5855 5856 5858 5859 5861
5756 5755 5755 5755 5755 5755 5756 5758 5759 5761 5763 5765 5767 5770 5773 5777 5781 5785 5789 5792 5797 5801 5806 5809 5814 5818 5822 5827 5830 5833 5836 5839 5841 5844 5845 5847 5848 5850 5851 5852 5853 5854 5856
5743 5742 5741 5741 5742 5742 5743 5745 5747 5749 5752 5754 5757 5760 5763 5767 5771 5775 5779 5783 5788 5792 5797 5801 5806 5810 5815 5820 5823 5827 5831 5834 5836 5839 5841 5843 5844 5846 5847 5848 5849 5850 5851
5729 5728 5727 5727 5727 5728 5729 5731 5733 5736 5738 5742 5745 5748 5752 5756 5760 5765 5769 5774 5779 5783 5788 5792 5797 5802 5807 5812 5816 5820 5824 5828 5831 5833 5836 5838 5840 5841 5842 5843 5845 5845 5846
5716 5714 5713 5712 5713 5713 5714 5716 5718 5721 5724 5727 5731 5735 5739 5744 5748 5753 5758 5763 5768 5773 5778 5783 5788 5793 5798 5803 5808 5812 5817 5821 5824 5827 5830 5832 5835 5836 5838 5839 5840 5841 5841
5702 5699 5697 5697 5697 5697 5698 5700 5702 5705 5708 5712 5716 5721 5725 5730 5735 5741 5746 5752 5757 5762 5768 5773 5778 5784 5789 5794 5799 5804 5808 5813 5817 5820 5824 5827 5829 5831 5832 5834 5835 5836 5836
5686 5683 5681 5680 5680 5680 5681 5683 5685 5688 5692 5696 5700 5705 5710 5715 5720 5726 5732 5738 5745 5750 5756 5762 5767 5773 5779 5784 5790 5795 5800 5805 5809 5813 5817 5820 5823 5825 5827 5828 5829 5830 5831
5669 5666 5663 5662 5662 5662 5663 5665 5667 5670 5674 5678 5683 5688 5693 5699 5705 5711 5717 5724 5730 5737 5743 5750 5756 5762 5768 5773 5779 5785 5791 5796 5800 5805 5809 5813 5816 5819 5821 5823 5824 5825 5825
5651 5647 5645 5643 5642 5643 5644 5646 5648 5651 5655 5660 5665 5670 5676 5682 5689 5695 5702 5709 5716 5723 5729 5737 5743 5750 5756 5763 5768 5775 5781 5787 5792 5796 5801 5805 5809 5812 5815 5817 5818 5819 5820
5633 5628 5625 5623 5622 5622 5624 5626 5628 5631 5635 5640 5645 5651 5657 5663 5670 5678 5685 5693 5701 5708 5715 5723 5730 5737 5744 5751 5758 5764 5770 5776 5782 5788 5793 5798 5802 5805 5808 5810 5812 5813 5814
5616 5611 5607 5605 5603 5602 5603 5605 5607 5611 5616 5621 5626 5632 5638 5644 5652 5660 5668 5676 5685 5693 5701 5709 5717 5724 5732 5739 5746 5752 5760 5767 5774 5779 5784 5789 5794 5798 5801 5803 5805 5807 5808
5599 5594 5590 5586 5585 5584 5584 5585 5588 5592 5598 5603 5609 5615 5620 5627 5634 5642 5651 5660 5668 5677 5686 5695 5703 5711 5719 5727 5734 5741 5748 5755 5763 5769 5775 5780 5786 5790 5794 5796 5798 5800 5802
5583 5578 5574 5570 5568 5566 5566 5567 5571 5575 5581 5587 5593 5599 5605 5611 5618 5626 5634 5643 5651 5661 5671 5680 5690 5698 5705 5713 5721 5729 5736 5744 5752 5759 5766 5772 5777 5782 5786 5789 5792 5794 5795
5570 5564 5559 5555 5552 5551 5550 5552 5555 5560 5566 5572 5579 5585 5591 5598 5605 5612 5620 5629 5637 5645 5654 5665 5674 5682 5691 5700 5709 5717 5724 5733 5741 5749 5756 5763 5769 5774 5778 5782 5785 5787 5789
5558 5552 5547 5542 5540 5538 5538 5539 5543 5548 5553 5560 5566 5573 5580 5586 5592 5599 5607 5615 5623 5631 5640 5650 5660 5669 5678 5687 5697 5706 5714 5722 5730 5739 5746 5754 5760 5766 5771 5774 5777 5780 5783
Wind_Speed
36 36 36 36 35 34 33 32 31 30 29 27 27 26 26 27 25 24 22 20 19 20 19 19 18 17 18 18 18 19 18 18 18 19 19 19 19 18 17 16 15 15 14
35 37 38 37 36 36 35 34 33 32 30 29 27 27 27 27 26 24 22 21 20 20 20 20 19 18 18 18 18 18 19 19 19 19 20 21 21 22 20 19 17 16 15
37 37 37 37 37 37 37 35 33 32 31 29 28 27 27 27 25 24 23 21 21 21 20 20 19 19 18 18 18 18 19 18 19 19 20 21 22 24 24 23 21 19 17
37 38 36 36 37 35 34 34 33 33 31 30 29 28 27 26 25 25 24 23 22 21 21 20 20 19 19 18 18 17 17 18 18 19 20 20 21 23 25 25 25 23 21
39 38 36 36 35 34 34 33 33 32 32 31 29 28 28 27 25 26 25 23 23 23 22 21 20 20 19 18 17 17 17 17 18 19 20 21 21 23 25 26 26 26 24
38 38 36 35 32 32 31 31 31 30 31 30 30 29 29 28 27 26 26 25 24 24 23 21 20 20 19 18 17 16 16 16 17 18 19 20 20 21 23 26 26 26 27
37 36 35 33 31 30 28 29 31 31 30 31 31 30 29 28 28 27 27 26 26 26 24 23 22 21 20 19 17 16 15 16 16 16 17 18 19 20 22 24 26 26 26
37 35 34 33 32 30 29 30 31 32 32 32 32 31 30 28 29 29 28 29 28 27 26 25 23 22 21 20 18 17 15 16 15 15 16 17 17 19 20 23 25 26 27
37 36 35 34 33 31 30 31 31 32 33 32 32 32 31 29 30 30 30 30 29 29 28 27 25 24 23 20 19 17 16 15 15 15 15 16 17 18 19 20 22 24 26
38 38 37 35 34 32 32 31 31 31 33 33 33 33 32 31 31 31 32 32 32 31 30 29 28 25 24 21 19 18 17 16 15 15 14 15 16 16 17 18 20 22 24
40 40 39 38 37 36 35 33 33 33 34 34 34 34 34 34 33 33 33 34 34 33 32 31 30 28 26 23 21 19 18 17 15 14 14 13 14 15 16 17 18 20 22
42 41 41 40 40 39 38 36 35 34 34 35 34 35 36 36 36 35 35 35 35 35 34 34 32 31 29 26 23 21 19 18 16 15 14 13 14 15 15 16 17 19 20
44 44 42 42 42 41 41 40 40 39 38 38 38 37 38 38 38 38 37 37 37 36 36 35 35 33 31 28 26 24 22 20 18 17 16 15 14 14 15 16 17 17 19
45 45 44 44 44 44 44 44 44 44 43 42 41 41 40 40 40 40 39 38 38 37 37 37 36 36 34 31 29 27 25 23 21 19 18 16 15 15 15 15 16 17 18
45 45 45 45 45 46 46 46 47 48 48 46 46 45 44 43 42 43 42 40 40 39 39 38 38 38 37 35 33 31 29 26 24 22 20 18 17 16 16 16 17 17 18
47 47 47 46 46 46 47 48 49 49 50 51 50 49 48 47 45 45 44 42 42 42 41 39 39 39 38 37 35 34 32 30 27 25 23 21 20 18 18 18 18 18 18
48 49 49 49 49 49 49 49 50 51 52 52 53 53 52 51 51 49 48 46 45 43 43 42 41 40 39 38 38 37 35 33 31 28 26 24 22 21 20 19 19 19 19
49 49 50 50 50 50 50 50 51 52 53 54 55 55 55 56 55 54 53 51 49 47 46 45 44 43 41 40 40 39 38 36 34 31 29 27 25 23 21 21 20 20 20
50 50 50 51 51 51 52 53 53 53 54 55 57 58 58 58 58 57 56 55 52 50 48 47 46 46 44 43 42 41 40 39 37 34 32 29 27 25 23 22 21 20 20
50 51 51 52 52 52 52 54 55 55 55 57 58 59 59 60 60 60 59 57 56 54 51 49 49 48 48 46 45 43 42 40 39 37 35 32 29 27 25 24 23 22 21
49 50 50 51 51 53 53 53 55 56 57 57 59 60 62 62 62 62 61 60 59 58 56 54 52 51 50 49 47 45 44 43 41 39 37 34 32 30 28 26 24 23 22
48 48 47 48 49 50 51 51 52 54 55 55 57 59 61 64 64 63 62 62 60 59 58 57 55 54 52 51 49 47 46 45 43 41 38 36 34 32 30 28 26 24 23
46 45 44 45 45 46 47 47 48 49 50 51 52 53 56 60 62 63 63 63 62 61 60 58 57 57 55 53 51 50 48 46 44 42 40 38 36 33 32 29 27 26 24
43 42 42 41 41 42 42 43 44 45 46 46 48 49 50 53 55 57 59 60 60 60 59 58 57 57 56 54 51 50 49 48 46 45 42 39 37 35 33 31 28 27 25
41 39 38 37 36 36 37 38 40 40 41 42 44 45 45 46 47 50 52 54 56 57 57 57 56 57 56 55 52 50 48 47 46 45 43 41 39 36 34 32 30 28 26
38 36 34 32 31 31 31 32 34 35 37 37 38 40 41 42 42 42 45 47 50 52 54 54 55 55 55 55 54 52 50 48 45 44 43 42 40 38 35 33 31 29 27
Wind_Direction
294 292 291 290 287 284 281 277 272 267 262 263 261 256 253 249 253 250 249 251 249 248 246 245 245 246 249 250 251 250 251 249 248 245 242 241 240 237 236 236 234 234 234
296 292 292 288 286 284 279 277 274 267 263 262 260 257 254 252 249 249 248 246 246 245 245 243 244 246 247 248 249 248 250 251 249 247 244 243 241 237 236 234 234 234 233
296 294 292 289 287 284 280 276 272 267 264 261 258 257 254 250 246 247 246 244 243 243 241 242 243 244 246 247 247 249 250 251 250 249 247 245 243 239 236 234 233 234 234
296 295 293 290 287 284 281 273 270 268 263 260 257 255 251 248 244 244 246 244 241 240 239 240 243 243 244 245 245 248 249 250 251 251 248 245 243 239 237 236 234 234 234
295 295 293 292 286 281 277 271 268 264 261 258 256 252 248 247 245 243 244 242 238 236 237 239 241 241 242 243 245 247 248 250 252 252 249 246 245 242 238 236 235 234 235
292 293 292 292 287 283 276 269 265 261 260 256 252 250 248 247 243 243 242 240 237 236 235 235 236 237 239 242 243 246 248 251 253 253 250 246 248 245 240 238 237 237 237
290 290 289 288 284 282 277 268 263 261 259 255 252 247 247 245 242 241 240 240 237 236 235 233 233 235 238 240 241 244 248 250 252 253 251 248 249 249 244 239 237 237 240
289 288 287 285 282 280 275 270 264 259 256 254 250 245 244 243 241 240 240 239 237 236 234 232 231 233 235 238 240 242 247 248 250 252 252 250 250 251 246 243 242 241 241
286 285 283 283 280 278 274 270 263 260 253 250 247 243 243 243 241 241 239 237 236 235 233 232 231 232 234 236 238 240 244 248 248 251 253 252 250 252 250 247 247 244 242
285 283 282 280 277 275 275 272 261 259 253 249 245 243 242 241 240 240 238 237 236 234 232 231 230 230 232 234 235 239 243 246 249 250 253 254 251 251 252 251 248 247 245
284 282 280 279 277 273 272 269 263 260 254 251 247 242 241 240 239 240 239 238 236 234 232 231 231 231 230 231 232 236 240 243 244 248 251 253 253 252 252 253 252 251 250
283 281 279 277 275 272 269 266 262 258 255 253 250 245 241 241 241 240 238 237 235 234 233 232 232 232 230 229 231 233 235 237 239 243 247 252 255 256 257 257 256 254 253
284 281 279 276 274 271 267 263 260 257 255 253 251 247 243 241 240 240 238 237 235 233 233 233 232 231 229 229 230 231 232 233 237 242 245 250 255 258 259 259 260 261 258
285 282 279 276 273 270 266 263 260 257 254 252 249 247 245 241 240 240 239 237 234 234 233 233 232 231 230 230 230 230 231 232 236 240 244 247 253 259 262 263 263 264 264
285 282 280 276 273 269 265 263 260 257 254 252 250 247 245 244 242 241 240 238 236 235 234 234 233 232 231 230 230 231 233 234 235 238 243 246 251 258 262 264 265 266 267
285 282 280 276 273 269 265 262 259 256 255 253 251 248 245 243 243 241 239 238 237 236 235 235 234 232 232 231 231 232 234 235 236 238 241 245 250 255 261 265 268 269 270
285 282 279 277 273 269 265 261 258 256 254 252 251 249 246 244 243 241 240 238 237 236 236 234 234 232 232 232 232 232 234 235 236 237 240 244 248 253 258 263 267 270 271
286 283 279 276 273 269 265 262 258 255 253 252 250 249 248 246 244 242 241 240 238 238 236 234 235 234 233 233 233 233 234 235 236 237 239 242 247 251 256 262 266 269 271
288 284 280 275 272 269 266 263 259 256 253 251 250 249 247 246 244 243 242 241 240 239 238 237 236 235 233 233 233 233 234 234 234 236 238 241 245 249 254 259 264 268 272
290 286 281 276 273 269 265 263 260 257 254 252 249 248 246 245 244 243 242 241 240 240 239 238 236 235 235 234 233 232 233 234 234 234 236 239 243 246 251 257 261 267 272
292 288 282 277 273 269 266 263 260 257 254 252 249 247 245 244 243 243 243 241 240 239 239 239 237 236 236 235 233 232 233 233 233 233 235 237 241 245 248 253 259 264 270
295 290 285 279 276 272 267 262 259 256 253 251 249 247 246 244 243 242 242 242 241 240 239 239 238 237 236 234 234 233 232 231 231 232 233 235 239 243 246 251 256 260 267
298 293 288 282 277 272 266 260 257 254 251 249 248 246 245 244 243 242 241 241 240 240 239 238 237 236 235 234 234 233 232 231 230 230 232 235 237 241 244 248 252 257 263
300 296 292 286 280 274 266 259 256 252 248 246 244 243 243 243 243 242 241 240 239 239 238 237 236 236 235 234 233 232 232 232 232 232 233 235 237 239 243 245 249 255 260
305 300 296 290 283 275 266 259 254 248 245 242 241 240 239 239 240 239 238 238 237 236 235 235 235 235 234 233 234 232 231 233 233 233 233 235 237 238 241 244 247 252 257
310 306 300 293 287 277 267 258 251 245 242 239 237 236 235 235 235 235 235 234 234 234 234 234 233 232 232 233 233 232 233 233 233 232 233 234 235 237 239 242 244 249 253